Regional Weather Roundup
Issued by NWS New Orleans/Baton Rouge, LA

Home | Current Version | Previous Version | Graphics & Text | Print | Product List | Glossary On
Versions: 1 2 3 4 5 6 7 8 9 10 11 12 13 14 15 16 17 18 19 20 21 22 23 24 25 26 27 28 29 30 31 32 33 34 35 36 37 38 39 40 41 42 43 44 45 46 47 48 49 50
531
ASUS44 KLIX 010201
RWRLIX
NEW ORLEANS REGIONAL WEATHER ROUNDUP
NATIONAL WEATHER SERVICE NEW ORLEANS LA
800 PM CST SAT FEB 28 2015

NOTE: "FAIR" INDICATES FEW OR NO CLOUDS BELOW 12,000 FEET WITH NO
      SIGNIFICANT WEATHER AND/OR OBSTRUCTIONS TO VISIBILITY.
      SKY/WX - SKY CONDITION AND SIGNIFICANT WEATHER.
      TMP - AIR TEMPERATURE.     DP    - DEWPOINT TEMPERATURE.
      RH  - RELATIVE HUMIDITY.   PRES  - PRESSURE.
      HI  - HEAT INDEX.          WCI   - WIND CHILL INDEX.

*  THESE STATIONS ARE NOT NWS OR FAA STATIONS AND ARE NOT UNDER
   NWS QUALITY CONTROL.

LAZ038-040-048-061>063-065>067-069-010300-
SOUTHEAST LOUISIANA

CITY           SKY/WX    TMP DP  RH WIND       PRES   REMARKS
N.O. AUDUBON     N/A     58  53  84 MISG        N/A
N.O. INTL ARPT PTCLDY    57  50  77 E13       30.32F
N.O. LAKEFRONT PTCLDY    57  51  80 E13       30.34S
SLIDELL        CLOUDY    58  50  75 E8        30.35R
BATON ROUGE    CLOUDY    57  46  66 E9        30.33R
BOOTHVILLE     CLOUDY    56  54  93 E14       30.33S FOG
BELLE CHASSE   MOCLDY    58  50  75 E10       30.33R
BOGALUSA*        N/A     60  49  67 SE8       30.35S
GALLIANO*      PTCLDY    58  54  86 NE6       30.32S
NEW ROADS*     NOT AVBL
GONZALES*      NOT AVBL
HAMMOND*       NOT AVBL
HOUMA*         CLOUDY    56  52  86 E12       30.31S
PORT FOURCHON* CLOUDY    57  55  94 E17       30.32F FOG

$$

MSZ070-080>082-010300-
SOUTHERN MISSISSIPPI

CITY           SKY/WX    TMP DP  RH WIND       PRES   REMARKS
MCCOMB         CLOUDY    52  38  58 SE6       30.33R
GULFPORT       CLOUDY    54  51  90 SE7       30.37R
BILOXI         NOT AVBL
PASCAGOULA     CLOUDY    55  50  83 SE3       30.37R
STENNIS ARPT*  CLEAR     55  48  76 CALM      30.37R

$$

COASTAL OBSERVATIONS
LAKE AND NEARSHORE STATIONS

STATION/POSITION TIME  TEMP    WIND        PRES    WAVE
                       AIR SEA DIR/SP/G            HT/PER
                 (UTC) (F)     (DEG/KT/KT) (MB)    (FT/S)
PASCAGOULA       0100   57     110/  5/  9 1027.6
WAVELAND YACHT   0100   55 52  130/  9/ 12 1027.6
GRAND ISLE       0100   57 56   80/ 17/ 21 1026.7
SOUTHWEST PASS   0100   58 48   60/ 15/ 16 1026.4
NEW CANAL        0123   56      90/  2/  5 1027.3
SHELL BEACH      0100   56 53   80/ 13/ 15 1027.0

OFFSHORE STATIONS

STATION/POSITION TIME  TEMP    WIND        PRES    WAVE
                       AIR SEA DIR/SP/G            HT/PER
                 (UTC) (F)     (DEG/KT/KT) (MB)    (FT/S)
64 S DAUPHIN ISL 0102   62 70  100/ 17/ 19 1027.3    5/ 7

$$




USA.gov is the U.S. government's official web portal to all federal, state and local government web resources and services.